EXS46F EGNM-LEGE

Flight info

Callsign EXS46F
Flight time 1h 50m
Altitude 37000
Route POL DCT MCT DCT LISTO UL612 MID DCT SITET UN859 SOPIL DCT BALAN DCT EVPOK DCT NARAK DCT GAI DCT PPG A27 KANIG
Aircraft B738/M-SDE2E3FGHIRWXY/LB1

Departure

Time 2026-04-23 05:56
Airport Leeds Bradford Airport (EGNM)

Arrival

Time 2026-04-23 07:47
Airport Girona-Costa Brava Airport (LEGE)
Time Latitude Longitude Altitude Speed Heading
2026-04-23 05:38 53.86874 -1.65279 664 ft 0 kts
2026-04-23 05:40 53.86874 -1.65278 664 ft 0 kts
2026-04-23 05:41 53.86874 -1.65279 664 ft 0 kts
2026-04-23 05:41 53.86874 -1.65278 664 ft 0 kts
2026-04-23 05:42 53.86874 -1.65279 664 ft 0 kts
2026-04-23 05:42 53.86874 -1.65278 664 ft 0 kts
2026-04-23 05:46 53.86874 -1.65279 664 ft 0 kts
2026-04-23 05:47 53.86853 -1.65279 663 ft 2 kts
2026-04-23 05:47 53.86833 -1.65277 661 ft 4 kts 324°
2026-04-23 05:47 53.86825 -1.65254 657 ft 3 kts 271°
2026-04-23 05:47 53.86825 -1.65294 658 ft 4 kts 271°
2026-04-23 05:48 53.86825 -1.65310 661 ft 2 kts 271°
2026-04-23 05:51 53.86826 -1.65329 661 ft 3 kts 271°
2026-04-23 05:51 53.86825 -1.65369 661 ft 6 kts 261°
2026-04-23 05:52 53.86771 -1.65416 660 ft 11 kts 185°
2026-04-23 05:52 53.86738 -1.65529 663 ft 14 kts 271°
2026-04-23 05:52 53.86742 -1.65725 664 ft 19 kts 272°
2026-04-23 05:52 53.86744 -1.65969 667 ft 21 kts 270°
2026-04-23 05:53 53.86748 -1.66193 667 ft 20 kts 271°
2026-04-23 05:53 53.86798 -1.66372 666 ft 17 kts 318°
2026-04-23 05:53 53.86885 -1.66507 670 ft 17 kts 318°
2026-04-23 05:53 53.86982 -1.66653 672 ft 20 kts 318°
2026-04-23 05:54 53.87085 -1.66813 679 ft 20 kts 317°
2026-04-23 05:54 53.87195 -1.66975 684 ft 20 kts 328°
2026-04-23 05:54 53.87332 -1.66989 688 ft 20 kts
2026-04-23 05:54 53.87402 -1.67080 685 ft 12 kts 270°
2026-04-23 05:55 53.87353 -1.67185 687 ft 12 kts 210°
2026-04-23 05:55 53.87299 -1.67146 688 ft 7 kts 136°
2026-04-23 05:55 53.87262 -1.67088 687 ft 8 kts 138°
2026-04-23 05:55 53.87149 -1.66917 683 ft 54 kts 137°
2026-04-23 05:56 53.86655 -1.66153 665 ft 135 kts 139°
2026-04-23 05:56 53.85852 -1.64890 1039 ft 170 kts 134°
2026-04-23 05:56 53.84972 -1.63467 2001 ft 179 kts 135°
2026-04-23 05:56 53.84024 -1.62022 2834 ft 194 kts 137°
2026-04-23 05:57 53.82869 -1.60598 3100 ft 217 kts 156°
2026-04-23 05:57 53.81352 -1.60247 3629 ft 229 kts 185°
2026-04-23 05:57 53.79874 -1.61327 4239 ft 241 kts 217°
2026-04-23 05:57 53.78943 -1.63803 4681 ft 265 kts 254°
2026-04-23 05:58 53.78680 -1.66932 5500 ft 271 kts 260°
2026-04-23 05:58 53.78427 -1.70102 6385 ft 274 kts 259°
2026-04-23 05:58 53.78152 -1.73297 6831 ft 275 kts 259°
2026-04-23 05:58 53.77850 -1.76507 7038 ft 277 kts 258°
2026-04-23 05:59 53.77529 -1.79739 7395 ft 281 kts 258°
2026-04-23 05:59 53.77198 -1.83007 8227 ft 282 kts 258°
2026-04-23 05:59 53.76866 -1.86276 9102 ft 283 kts 258°
2026-04-23 05:59 53.76530 -1.89579 9893 ft 287 kts 258°
2026-04-23 06:00 53.76190 -1.92909 10662 ft 291 kts 258°
2026-04-23 06:00 53.75835 -1.96370 11055 ft 310 kts 258°
2026-04-23 06:00 53.75450 -2.00094 11300 ft 332 kts 258°
2026-04-23 06:00 53.75057 -2.03881 11889 ft 339 kts 256°
2026-04-23 06:01 53.74234 -2.07568 12655 ft 336 kts 234°
2026-04-23 06:01 53.72612 -2.10338 13529 ft 332 kts 213°
2026-04-23 06:01 53.70541 -2.12005 14312 ft 332 kts 195°
2026-04-23 06:01 53.68290 -2.12989 14944 ft 337 kts 193°
2026-04-23 06:02 53.65979 -2.13909 15491 ft 345 kts 193°
2026-04-23 06:02 53.63623 -2.14832 16075 ft 350 kts 193°
2026-04-23 06:02 53.61230 -2.15780 16676 ft 356 kts 193°
2026-04-23 06:02 53.58805 -2.16754 17287 ft 360 kts 193°
2026-04-23 06:03 53.56359 -2.17748 17899 ft 365 kts 194°
2026-04-23 06:03 53.53871 -2.18765 18451 ft 372 kts 194°
2026-04-23 06:03 53.51333 -2.19806 18938 ft 378 kts 194°
2026-04-23 06:03 53.48762 -2.20861 19464 ft 382 kts 194°
2026-04-23 06:04 53.46165 -2.21925 20021 ft 385 kts 194°
2026-04-23 06:04 53.43548 -2.22997 20549 ft 389 kts 194°
2026-04-23 06:04 53.40913 -2.24074 21064 ft 393 kts 194°
2026-04-23 06:04 53.38240 -2.25154 21543 ft 398 kts 192°
2026-04-23 06:05 53.35482 -2.25729 22036 ft 402 kts 181°
2026-04-23 06:05 53.32685 -2.25470 22572 ft 404 kts 171°
2026-04-23 06:05 53.29916 -2.24648 23159 ft 405 kts 169°
2026-04-23 06:05 53.27131 -2.23757 23605 ft 410 kts 168°
2026-04-23 06:06 53.24314 -2.22867 24069 ft 414 kts 169°
2026-04-23 06:06 53.21472 -2.22003 24481 ft 417 kts 169°
2026-04-23 06:06 53.18609 -2.21157 24933 ft 418 kts 169°
2026-04-23 06:06 53.15733 -2.20312 25346 ft 421 kts 168°
2026-04-23 06:07 53.12896 -2.19077 25716 ft 424 kts 159°
2026-04-23 06:07 53.10154 -2.17198 26114 ft 426 kts 156°
2026-04-23 06:07 53.07421 -2.15259 26491 ft 429 kts 156°
2026-04-23 06:07 53.04683 -2.13318 26655 ft 425 kts 156°
2026-04-23 06:08 53.01964 -2.11406 27092 ft 424 kts 156°
2026-04-23 06:08 52.99243 -2.09509 27495 ft 423 kts 156°
2026-04-23 06:08 52.96523 -2.07626 27853 ft 424 kts 156°
2026-04-23 06:08 52.93795 -2.05746 28165 ft 426 kts 156°
2026-04-23 06:09 52.91052 -2.03862 28486 ft 427 kts 157°
2026-04-23 06:09 52.88342 -2.02004 28812 ft 428 kts 157°
2026-04-23 06:09 52.85583 -2.00116 29147 ft 429 kts 156°
2026-04-23 06:09 52.82821 -1.98228 29467 ft 430 kts 156°
2026-04-23 06:10 52.80050 -1.96336 29784 ft 431 kts 156°
2026-04-23 06:10 52.77273 -1.94443 30049 ft 433 kts 156°
2026-04-23 06:10 52.74482 -1.92542 30343 ft 435 kts 156°
2026-04-23 06:10 52.71678 -1.90636 30619 ft 436 kts 156°
2026-04-23 06:11 52.68862 -1.88723 30870 ft 438 kts 156°
2026-04-23 06:11 52.66043 -1.86812 31116 ft 439 kts 156°
2026-04-23 06:11 52.63203 -1.84889 31273 ft 444 kts 156°
2026-04-23 06:11 52.60347 -1.82958 31670 ft 443 kts 157°
2026-04-23 06:12 52.57501 -1.81036 32083 ft 442 kts 157°
2026-04-23 06:12 52.54647 -1.79112 32364 ft 444 kts 157°
2026-04-23 06:12 52.48929 -1.75264 32808 ft 450 kts 157°
2026-04-23 06:13 52.46027 -1.73315 33048 ft 452 kts 157°
2026-04-23 06:13 52.43111 -1.71359 33307 ft 454 kts 157°
2026-04-23 06:13 52.40146 -1.69373 33567 ft 455 kts 158°
2026-04-23 06:13 52.37245 -1.67434 33802 ft 457 kts 158°
2026-04-23 06:14 52.34308 -1.65378 34023 ft 459 kts 155°
2026-04-23 06:14 52.31436 -1.63102 34246 ft 461 kts 153°
2026-04-23 06:14 52.28569 -1.60707 34479 ft 463 kts 152°
2026-04-23 06:14 52.25710 -1.58295 34681 ft 464 kts 152°
2026-04-23 06:15 52.22827 -1.55881 34862 ft 466 kts 153°
2026-04-23 06:15 52.19934 -1.53489 35058 ft 467 kts 153°
2026-04-23 06:15 52.16984 -1.51075 35257 ft 468 kts 153°
2026-04-23 06:15 52.14064 -1.48698 35443 ft 470 kts 153°
2026-04-23 06:16 52.11137 -1.46320 35623 ft 472 kts 153°
2026-04-23 06:16 52.08185 -1.43925 35677 ft 476 kts 153°
2026-04-23 06:16 52.05223 -1.41521 35856 ft 476 kts 153°
2026-04-23 06:16 52.02266 -1.39115 36141 ft 473 kts 153°
2026-04-23 06:17 51.99327 -1.36724 36456 ft 471 kts 153°
2026-04-23 06:17 51.96440 -1.34382 36684 ft 471 kts 153°
2026-04-23 06:17 51.93510 -1.32016 36892 ft 471 kts 153°
2026-04-23 06:17 51.90581 -1.29660 37121 ft 470 kts 153°
2026-04-23 06:18 51.87657 -1.27312 37386 ft 468 kts 153°
2026-04-23 06:18 51.84735 -1.24967 37455 ft 470 kts 153°
2026-04-23 06:18 51.78874 -1.20271 37453 ft 470 kts 153°
2026-04-23 06:19 51.73087 -1.15646 37428 ft 466 kts 153°
2026-04-23 06:19 51.67235 -1.10980 37427 ft 463 kts 153°
2026-04-23 06:20 51.61479 -1.06350 37426 ft 461 kts 149°
2026-04-23 06:20 51.56148 -1.00445 37427 ft 459 kts 142°
2026-04-23 06:21 51.51028 -0.94415 37451 ft 460 kts 143°
2026-04-23 06:21 51.45772 -0.88508 37443 ft 463 kts 147°
2026-04-23 06:22 51.39900 -0.84221 37448 ft 466 kts 158°
2026-04-23 06:22 51.33876 -0.80515 37446 ft 468 kts 158°
2026-04-23 06:23 51.27788 -0.76703 37426 ft 471 kts 158°
2026-04-23 06:23 51.21648 -0.72800 37433 ft 473 kts 158°
2026-04-23 06:24 51.15523 -0.68905 37429 ft 474 kts 158°
2026-04-23 06:24 51.09390 -0.65020 37421 ft 475 kts 158°
2026-04-23 06:25 51.03251 -0.61120 37418 ft 475 kts 157°
2026-04-23 06:25 50.97160 -0.57062 37417 ft 474 kts 156°
2026-04-23 06:26 50.91103 -0.52985 37407 ft 472 kts 156°
2026-04-23 06:26 50.85052 -0.48945 37396 ft 471 kts 156°
2026-04-23 06:27 50.79019 -0.44945 37394 ft 470 kts 156°
2026-04-23 06:27 50.73008 -0.40975 37393 ft 468 kts 157°
2026-04-23 06:28 50.66996 -0.37016 37388 ft 468 kts 157°
2026-04-23 06:28 50.60995 -0.33073 37382 ft 467 kts 157°
2026-04-23 06:29 50.54995 -0.29142 37386 ft 467 kts 157°
2026-04-23 06:29 50.49999 -0.25877 37379 ft 468 kts 157°
2026-04-23 06:30 50.43980 -0.21954 37379 ft 469 kts 157°
2026-04-23 06:30 50.37945 -0.18030 37370 ft 470 kts 157°
2026-04-23 06:31 50.31886 -0.14102 37370 ft 472 kts 157°
2026-04-23 06:31 50.25815 -0.10177 37366 ft 473 kts 157°
2026-04-23 06:32 50.19730 -0.06254 37359 ft 474 kts 157°
2026-04-23 06:32 50.13612 -0.02319 37356 ft 475 kts 158°
2026-04-23 06:33 50.07422 0.01250 37358 ft 476 kts 165°
2026-04-23 06:33 50.00996 0.03718 37353 ft 476 kts 167°
2026-04-23 06:34 49.94548 0.06099 37340 ft 476 kts 167°
2026-04-23 06:34 49.88126 0.08572 37347 ft 476 kts 166°
2026-04-23 06:35 49.81706 0.11083 37344 ft 475 kts 166°
2026-04-23 06:35 49.75300 0.13582 37342 ft 475 kts 166°
2026-04-23 06:36 49.68893 0.16070 37341 ft 474 kts 166°
2026-04-23 06:36 49.62503 0.18616 37348 ft 474 kts 166°
2026-04-23 06:37 49.56125 0.21219 37348 ft 474 kts 166°
2026-04-23 06:37 49.49788 0.23791 37338 ft 474 kts 166°
2026-04-23 06:38 49.43402 0.26364 37320 ft 474 kts 166°
2026-04-23 06:38 49.37023 0.28926 37325 ft 474 kts 166°
2026-04-23 06:39 49.30641 0.31484 37320 ft 475 kts 166°
2026-04-23 06:39 49.24265 0.34137 37320 ft 475 kts 165°
2026-04-23 06:40 49.17897 0.36836 37319 ft 475 kts 165°
2026-04-23 06:40 49.11514 0.39524 37317 ft 476 kts 166°
2026-04-23 06:41 49.05126 0.42196 37303 ft 476 kts 166°
2026-04-23 06:41 48.98735 0.44858 37329 ft 477 kts 166°
2026-04-23 06:42 48.92333 0.47519 37321 ft 477 kts 166°
2026-04-23 06:42 48.85963 0.50161 37309 ft 478 kts 166°
2026-04-23 06:43 48.79545 0.52815 37311 ft 478 kts 166°
2026-04-23 06:43 48.73114 0.55379 37307 ft 478 kts 166°
2026-04-23 06:44 48.66669 0.57872 37304 ft 478 kts 166°
2026-04-23 06:44 48.60228 0.60375 37298 ft 478 kts 167°
2026-04-23 06:45 48.53785 0.62883 37302 ft 478 kts 167°
2026-04-23 06:45 48.47353 0.65437 37294 ft 478 kts 166°
2026-04-23 06:46 48.40938 0.68063 37290 ft 478 kts 166°
2026-04-23 06:46 48.34512 0.70679 37288 ft 478 kts 166°
2026-04-23 06:47 48.28091 0.73274 37285 ft 478 kts 166°
2026-04-23 06:47 48.21660 0.75849 37271 ft 478 kts 167°
2026-04-23 06:48 48.15216 0.78381 37280 ft 479 kts 167°
2026-04-23 06:48 48.08766 0.80908 37281 ft 479 kts 167°
2026-04-23 06:49 48.02304 0.83440 37272 ft 480 kts 167°
2026-04-23 06:49 47.95838 0.85969 37278 ft 481 kts 167°
2026-04-23 06:50 47.89399 0.88481 37272 ft 482 kts 167°
2026-04-23 06:50 47.82912 0.91005 37263 ft 482 kts 167°
2026-04-23 06:51 47.76423 0.93518 37244 ft 483 kts 168°
2026-04-23 06:51 47.69922 0.96027 37254 ft 483 kts 168°
2026-04-23 06:52 47.63414 0.98534 37249 ft 483 kts 168°
2026-04-23 06:52 47.56902 1.01038 37244 ft 484 kts 168°
2026-04-23 06:53 47.50389 1.03536 37246 ft 484 kts 168°
2026-04-23 06:53 47.43862 1.05957 37240 ft 483 kts 173°
2026-04-23 06:54 47.40544 1.06526 37231 ft 478 kts 184°
2026-04-23 06:54 47.37231 1.06464 37245 ft 475 kts 186°
2026-04-23 06:54 47.30616 1.06184 37237 ft 476 kts 186°
2026-04-23 06:55 47.23993 1.05971 37239 ft 477 kts 186°
2026-04-23 06:55 47.17355 1.05820 37226 ft 477 kts 186°
2026-04-23 06:56 47.10716 1.05680 37232 ft 477 kts 186°
2026-04-23 06:56 47.04128 1.05534 37228 ft 477 kts 186°
2026-04-23 06:57 46.97502 1.05322 37222 ft 476 kts 187°
2026-04-23 06:57 46.90899 1.05014 37219 ft 474 kts 187°
2026-04-23 06:58 46.84302 1.04709 37220 ft 473 kts 187°
2026-04-23 06:58 46.77724 1.04421 37218 ft 473 kts 187°
2026-04-23 06:59 46.71157 1.04139 37212 ft 472 kts 187°
2026-04-23 06:59 46.64599 1.03857 37215 ft 471 kts 187°
2026-04-23 07:00 46.58042 1.03576 37213 ft 471 kts 187°
2026-04-23 07:00 46.51491 1.03471 37201 ft 474 kts 180°
2026-04-23 07:01 46.44962 1.05316 37207 ft 479 kts 170°
2026-04-23 07:01 46.38483 1.07606 37200 ft 479 kts 170°
2026-04-23 07:02 46.31993 1.09846 37192 ft 479 kts 171°
2026-04-23 07:02 46.25508 1.12020 37197 ft 478 kts 171°
2026-04-23 07:03 46.19020 1.14169 37205 ft 478 kts 171°
2026-04-23 07:03 46.12534 1.16312 37194 ft 478 kts 171°
2026-04-23 07:04 46.06089 1.18440 37188 ft 478 kts 171°
2026-04-23 07:04 45.99599 1.20579 37185 ft 479 kts 171°
2026-04-23 07:05 45.93060 1.22729 37188 ft 479 kts 171°
2026-04-23 07:05 45.86600 1.24847 37175 ft 480 kts 171°
2026-04-23 07:06 45.80087 1.26979 37191 ft 480 kts 171°
2026-04-23 07:06 45.73574 1.29105 37178 ft 480 kts 171°
2026-04-23 07:07 45.67054 1.31228 37177 ft 480 kts 171°
2026-04-23 07:07 45.60542 1.33344 37176 ft 481 kts 171°
2026-04-23 07:08 45.54014 1.35460 37171 ft 481 kts 171°
2026-04-23 07:08 45.47495 1.37568 37171 ft 480 kts 171°
2026-04-23 07:09 45.40981 1.39669 37171 ft 480 kts 171°
2026-04-23 07:09 45.34473 1.41764 37162 ft 479 kts 171°
2026-04-23 07:10 45.27984 1.43848 37175 ft 478 kts 171°
2026-04-23 07:10 45.21496 1.45927 37178 ft 478 kts 171°
2026-04-23 07:11 45.15017 1.47998 37179 ft 477 kts 171°
2026-04-23 07:12 45.05355 1.51078 37185 ft 476 kts 171°
2026-04-23 07:12 44.98884 1.53136 37182 ft 476 kts 171°
2026-04-23 07:13 44.92418 1.55186 37161 ft 477 kts 171°
2026-04-23 07:13 44.85937 1.57236 37169 ft 478 kts 171°
2026-04-23 07:14 44.79443 1.59286 37168 ft 479 kts 171°
2026-04-23 07:14 44.72933 1.61336 37167 ft 480 kts 171°
2026-04-23 07:15 44.66418 1.63384 37160 ft 480 kts 171°
2026-04-23 07:15 44.59893 1.65430 37148 ft 481 kts 171°
2026-04-23 07:16 44.53363 1.67473 37161 ft 480 kts 171°
2026-04-23 07:16 44.46842 1.69508 37170 ft 480 kts 171°
2026-04-23 07:17 44.40316 1.71541 37151 ft 480 kts 171°
2026-04-23 07:17 44.33808 1.73563 37164 ft 479 kts 171°
2026-04-23 07:18 44.27458 1.75450 37141 ft 455 kts 174°
2026-04-23 07:18 44.24384 1.76163 37109 ft 441 kts 175°
2026-04-23 07:18 44.21361 1.76798 36763 ft 437 kts 176°
2026-04-23 07:18 44.18330 1.77417 35901 ft 446 kts 175°
2026-04-23 07:19 44.15224 1.78061 35081 ft 456 kts 175°
2026-04-23 07:19 44.13139 1.78505 34716 ft 457 kts 175°
2026-04-23 07:19 44.08971 1.79418 34386 ft 453 kts 174°
2026-04-23 07:19 44.05822 1.80111 34172 ft 464 kts 174°
2026-04-23 07:20 44.02591 1.80820 33917 ft 475 kts 174°
2026-04-23 07:20 43.99292 1.81549 33651 ft 483 kts 173°
2026-04-23 07:20 43.96026 1.82697 33372 ft 486 kts 163°
2026-04-23 07:20 43.92909 1.84511 33134 ft 485 kts 154°
2026-04-23 07:21 43.90995 1.86080 33215 ft 481 kts 148°
2026-04-23 07:21 43.85455 1.91078 33177 ft 467 kts 148°
2026-04-23 07:22 43.80009 1.95976 33151 ft 467 kts 149°
2026-04-23 07:22 43.77273 1.98409 32740 ft 472 kts 149°
2026-04-23 07:22 43.74474 2.00881 32051 ft 476 kts 149°
2026-04-23 07:22 43.71678 2.03341 31361 ft 478 kts 149°
2026-04-23 07:23 43.68875 2.05801 30767 ft 478 kts 149°
2026-04-23 07:23 43.66064 2.08265 30155 ft 478 kts 149°
2026-04-23 07:23 43.63259 2.10721 29458 ft 478 kts 149°
2026-04-23 07:23 43.60468 2.13163 28979 ft 471 kts 149°
2026-04-23 07:24 43.57716 2.15571 28522 ft 466 kts 149°
2026-04-23 07:24 43.54990 2.17952 28047 ft 461 kts 149°
2026-04-23 07:24 43.52288 2.20310 27575 ft 457 kts 149°
2026-04-23 07:24 43.49613 2.22642 27106 ft 453 kts 149°
2026-04-23 07:25 43.46959 2.24952 26640 ft 449 kts 149°
2026-04-23 07:25 43.44327 2.27241 26193 ft 446 kts 149°
2026-04-23 07:25 43.41717 2.29509 25765 ft 442 kts 149°
2026-04-23 07:25 43.39117 2.31765 25309 ft 439 kts 149°
2026-04-23 07:26 43.36578 2.33966 24885 ft 437 kts 149°
2026-04-23 07:26 43.34014 2.36187 24444 ft 434 kts 149°
2026-04-23 07:26 43.31466 2.38392 23980 ft 433 kts 149°
2026-04-23 07:26 43.28921 2.40591 23478 ft 431 kts 149°
2026-04-23 07:27 43.26394 2.42773 22984 ft 428 kts 149°
2026-04-23 07:27 43.23885 2.44938 22523 ft 424 kts 149°
2026-04-23 07:27 43.21400 2.47080 22082 ft 420 kts 149°
2026-04-23 07:27 43.18943 2.49196 21641 ft 416 kts 149°
2026-04-23 07:28 43.16501 2.51297 21217 ft 412 kts 149°
2026-04-23 07:28 43.14086 2.53372 20783 ft 409 kts 149°
2026-04-23 07:28 43.11682 2.55436 20365 ft 405 kts 149°
2026-04-23 07:28 43.09302 2.57477 19947 ft 402 kts 149°
2026-04-23 07:29 43.06943 2.59499 19532 ft 399 kts 149°
2026-04-23 07:29 43.04602 2.61503 19120 ft 396 kts 149°
2026-04-23 07:29 43.02272 2.63496 18717 ft 394 kts 148°
2026-04-23 07:29 42.99951 2.65480 18257 ft 392 kts 148°
2026-04-23 07:30 42.97648 2.67447 17812 ft 389 kts 149°
2026-04-23 07:30 42.95357 2.69401 17376 ft 386 kts 149°
2026-04-23 07:30 42.93087 2.71337 16951 ft 383 kts 149°
2026-04-23 07:30 42.90837 2.73254 16548 ft 380 kts 149°
2026-04-23 07:31 42.88601 2.75157 16154 ft 378 kts 149°
2026-04-23 07:31 42.86381 2.77044 15744 ft 375 kts 149°
2026-04-23 07:31 42.84170 2.78923 15351 ft 373 kts 149°
2026-04-23 07:31 42.81975 2.80787 14948 ft 371 kts 149°
2026-04-23 07:32 42.79792 2.82639 14552 ft 369 kts 149°
2026-04-23 07:32 42.77624 2.84476 14167 ft 366 kts 149°
2026-04-23 07:32 42.75460 2.86277 13744 ft 363 kts 152°
2026-04-23 07:32 42.73155 2.87626 13324 ft 359 kts 164°
2026-04-23 07:33 42.70788 2.88633 12943 ft 351 kts 165°
2026-04-23 07:33 42.68522 2.89572 12573 ft 340 kts 165°
2026-04-23 07:33 42.66300 2.90498 12218 ft 329 kts 165°
2026-04-23 07:33 42.64139 2.91409 11849 ft 321 kts 164°
2026-04-23 07:34 42.62036 2.92305 11511 ft 312 kts 164°
2026-04-23 07:34 42.59986 2.93182 11280 ft 307 kts 164°
2026-04-23 07:34 42.57958 2.94052 11044 ft 304 kts 164°
2026-04-23 07:34 42.55948 2.94916 10841 ft 302 kts 164°
2026-04-23 07:35 42.53938 2.95779 10658 ft 303 kts 164°
2026-04-23 07:35 42.51920 2.96645 10373 ft 306 kts 164°
2026-04-23 07:35 42.49901 2.97512 10190 ft 302 kts 164°
2026-04-23 07:35 42.47878 2.98064 10010 ft 293 kts 184°
2026-04-23 07:36 42.45890 2.97584 9688 ft 289 kts 198°
2026-04-23 07:36 42.43965 2.96820 9376 ft 288 kts 199°
2026-04-23 07:36 42.42052 2.96041 9062 ft 287 kts 199°
2026-04-23 07:36 42.40156 2.95281 8741 ft 282 kts 198°
2026-04-23 07:37 42.38292 2.94547 8438 ft 276 kts 198°
2026-04-23 07:37 42.36460 2.93834 8141 ft 271 kts 197°
2026-04-23 07:37 42.34664 2.93138 7853 ft 266 kts 197°
2026-04-23 07:37 42.32894 2.92454 7575 ft 264 kts 196°
2026-04-23 07:38 42.31137 2.91774 7187 ft 262 kts 196°
2026-04-23 07:38 42.29408 2.91106 6781 ft 261 kts 195°
2026-04-23 07:38 42.27651 2.90428 6375 ft 259 kts 195°
2026-04-23 07:38 42.25982 2.89785 6038 ft 254 kts 194°
2026-04-23 07:39 42.24290 2.89124 5773 ft 253 kts 195°
2026-04-23 07:39 42.22604 2.88430 5507 ft 253 kts 194°
2026-04-23 07:39 42.20919 2.87759 5248 ft 252 kts 193°
2026-04-23 07:39 42.19236 2.87110 5075 ft 252 kts 193°
2026-04-23 07:40 42.17548 2.86469 5035 ft 251 kts 192°
2026-04-23 07:40 42.15896 2.85843 5012 ft 241 kts 192°
2026-04-23 07:40 42.14340 2.85252 4992 ft 230 kts 192°
2026-04-23 07:40 42.13709 2.85012 4950 ft 227 kts 192°
2026-04-23 07:41 42.12650 2.84610 4795 ft 226 kts 192°
2026-04-23 07:41 42.11173 2.84050 4510 ft 228 kts 192°
2026-04-23 07:41 42.09651 2.83474 4218 ft 226 kts 192°
2026-04-23 07:42 42.08149 2.82904 3915 ft 222 kts 192°
2026-04-23 07:42 42.06673 2.82344 3606 ft 218 kts 192°
2026-04-23 07:42 42.05240 2.81800 3301 ft 210 kts 192°
2026-04-23 07:42 42.03895 2.81289 3031 ft 197 kts 192°
2026-04-23 07:43 42.02625 2.80805 2780 ft 182 kts 191°
2026-04-23 07:43 42.01474 2.80368 2567 ft 163 kts 191°
2026-04-23 07:43 42.00419 2.79969 2368 ft 158 kts 191°
2026-04-23 07:43 41.99523 2.79622 2175 ft 157 kts 192°
2026-04-23 07:44 41.98475 2.79230 1966 ft 156 kts 192°
2026-04-23 07:44 41.97440 2.78841 1739 ft 152 kts 192°
2026-04-23 07:44 41.96864 2.78622 1641 ft 151 kts 192°
2026-04-23 07:44 41.96285 2.78401 1530 ft 147 kts 193°
2026-04-23 07:45 41.95492 2.78058 1399 ft 146 kts 194°
2026-04-23 07:45 41.94487 2.77686 1219 ft 157 kts 190°
2026-04-23 07:46 41.93443 2.77323 997 ft 155 kts 195°
2026-04-23 07:46 41.92395 2.76921 778 ft 154 kts 195°
2026-04-23 07:46 41.91412 2.76554 559 ft 149 kts 195°
2026-04-23 07:46 41.90461 2.76196 450 ft 135 kts 195°
2026-04-23 07:47 41.89860 2.75966 411 ft 62 kts 195°
2026-04-23 07:47 41.89568 2.75858 395 ft 20 kts 192°
2026-04-23 07:47 41.89482 2.75967 393 ft 20 kts 92°